Weather History for Paso Robles, CA

Change the Weather History Date:

Sunday, October 26, 2014

  Actual Average Record
Temperature  
Mean Temperature 61 °F 59 °F  
Max Temperature 74 °F 75 °F 94 °F (2003)
Min Temperature 47 °F 42 °F 30 °F (1971)
Degree Days  
Heating Degree Days 4 6  
Month to date heating degree days 24 101  
Since 1 July heating degree days 25 133  
Cooling Degree Days 0 0  
Month to date cooling degree days 104 34  
Year to date cooling degree days 1356 925  
Growing Degree Days 12 (Base 50)    
Moisture  
Dew Point 46 °F    
Average Humidity 59    
Maximum Humidity 89    
Minimum Humidity 29    
Precipitation  
Precipitation 0.00 in 0.03 in 1.10 in (2004)
Month to date precipitation T 0.46  
Year to date precipitation 4.46 9.58  
Since 1 July precipitation T 0.79  
Sea Level Pressure  
Sea Level Pressure 30.07 in    
Wind  
Wind Speed 9 mph (NNW)    
Max Wind Speed 20 mph    
Max Gust Speed 24 mph    
Visibility 10 miles    
Events      
T = Trace of Precipitation, MM = Missing Value Source: NWS Daily Summary

Daily Weather History Graph

Daily Weather History Graph

Search for Another Location

Airport:

Trip Planner

Search our weather history database for the weather conditions in past years. The results will help you decide how hot, cold, wet, or windy it might be!

Date:

Astronomy

Oct. 26, 2014 Rise Set
Actual Time 7:18 AM PDT 6:13 PM PDT
Civil Twilight 6:52 AM PDT 6:39 PM PDT
Nautical Twilight 6:22 AM PDT 7:09 PM PDT
Astronomical Twilight 5:53 AM PDT 7:39 PM PDT
Moon 9:58 AM PDT (10/26) 8:33 PM PDT (10/26)
Length of Visible Light 11h 46m
Length of Day
10h 54m
Waxing Crescent, 9% of the Moon is Illuminated
Oct 26
Waxing Crescent
Oct 30
First Quarter
Nov 6
Full
Nov 14
Last Quarter
Nov 22
New

Hourly Weather History & Observations

Time (PDT) Temp. Dew Point Humidity Pressure Visibility Wind Dir Wind Speed Gust Speed Precip Events Conditions
12:53 AM 55.9 °F 50.0 °F 80% 30.11 in 10.0 mi NW 8.1 mph - N/A   Clear
1:53 AM 54.0 °F 50.0 °F 86% 30.12 in 10.0 mi North 4.6 mph - N/A   Clear
2:53 AM 53.1 °F 48.0 °F 83% 30.11 in 10.0 mi NW 5.8 mph - N/A   Partly Cloudy
3:09 AM 54.0 °F 50.0 °F 86% 30.12 in 10.0 mi NW 5.8 mph - N/A   Mostly Cloudy
3:53 AM 54.0 °F 48.9 °F 83% 30.11 in 10.0 mi WNW 8.1 mph - N/A   Mostly Cloudy
4:02 AM 53.1 °F 48.9 °F 86% 30.11 in 10.0 mi NW 6.9 mph - N/A   Scattered Clouds
4:53 AM 51.1 °F 48.0 °F 89% 30.10 in 10.0 mi NW 6.9 mph - N/A   Clear
5:53 AM 51.1 °F 48.0 °F 89% 30.11 in 10.0 mi NNW 4.6 mph - N/A   Clear
6:42 AM 50.0 °F 46.9 °F 89% 30.12 in 10.0 mi North 5.8 mph - N/A   Scattered Clouds
6:53 AM 51.1 °F 48.0 °F 89% 30.12 in 10.0 mi North 6.9 mph - N/A   Mostly Cloudy
7:53 AM 53.1 °F 50.0 °F 89% 30.11 in 10.0 mi NNW 8.1 mph - N/A   Overcast
8:53 AM 54.0 °F 48.9 °F 83% 30.12 in 10.0 mi North 6.9 mph - N/A   Overcast
9:31 AM 55.0 °F 48.9 °F 80% 30.13 in 10.0 mi North 4.6 mph - N/A   Scattered Clouds
9:53 AM 57.9 °F 50.0 °F 75% 30.12 in 10.0 mi NW 5.8 mph - N/A   Scattered Clouds
10:00 AM 57.0 °F 50.0 °F 77% 30.13 in 10.0 mi NNW 9.2 mph - N/A   Scattered Clouds
10:53 AM 63.0 °F 50.0 °F 63% 30.12 in 10.0 mi NNW 12.7 mph - N/A   Clear
11:53 AM 66.0 °F 48.0 °F 52% 30.09 in 10.0 mi NNW 8.1 mph - N/A   Clear
12:53 PM 66.9 °F 45.0 °F 45% 30.06 in 10.0 mi West 3.5 mph - N/A   Clear
1:53 PM 71.1 °F 45.0 °F 39% 30.03 in 10.0 mi Variable 3.5 mph - N/A   Clear
2:53 PM 72.0 °F 44.1 °F 37% 30.01 in 10.0 mi Variable 3.5 mph - N/A   Clear
3:53 PM 73.0 °F 42.1 °F 33% 29.99 in 10.0 mi NW 8.1 mph - N/A   Clear
4:53 PM 73.0 °F 39.0 °F 29% 29.99 in 10.0 mi NW 11.5 mph - N/A   Clear
5:53 PM 69.1 °F 39.0 °F 33% 29.98 in 10.0 mi NNW 16.1 mph - N/A   Clear
6:53 PM 64.0 °F 39.9 °F 41% 29.99 in 10.0 mi NNW 16.1 mph - N/A   Clear
7:53 PM 62.1 °F 41.0 °F 46% 30.00 in 10.0 mi NW 11.5 mph - N/A   Clear
8:53 PM 60.1 °F 39.0 °F 46% 30.01 in 10.0 mi NW 13.8 mph - N/A   Clear
9:53 PM 57.9 °F 42.1 °F 56% 30.02 in 10.0 mi NW 12.7 mph - N/A   Clear
10:53 PM 57.0 °F 44.1 °F 62% 30.02 in 10.0 mi NW 12.7 mph - N/A   Clear
11:53 PM 55.0 °F 46.0 °F 72% 30.02 in 10.0 mi NW 10.4 mph - N/A   Clear